When you browse on this site, cookies collect data to enhance your experience and personalize the content and advertising you see.
Visit our Privacy Policy to learn more. By continuing to use the site, you agree to this use of cookies and data.
  • In Schweiz
  • Länderverzeichnis
  • Für 7 Tage
  • Wassertemperatur
  • Wetterkarte
  • Widgets
  • user-avatar
    Anmelden

    Stündliche Wetter Victoria

    Heute, 21 August, Mittwoch

    Zeit Temperatur Niederschläge Wind Luftdruck Luftfeuchtigkeit
    00:00 +9°C° 0 mm 6 m/S 754 mmHg 85%
    01:00 +9°C° 0 mm 6 m/S 753 mmHg 85%
    02:00 +9°C° 0 mm 6 m/S 753 mmHg 85%
    03:00 +9°C° 0 mm 6 m/S 753 mmHg 86%
    04:00 +9°C° 0 mm 6 m/S 753 mmHg 86%
    05:00 +9°C° 0 mm 6 m/S 753 mmHg 86%
    06:00 +9°C° 0 mm 6 m/S 752 mmHg 86%
    07:00 +9°C° 0 mm 6 m/S 752 mmHg 86%
    08:00 +10°C° 0.1 mm 6 m/S 753 mmHg 85%
    09:00 +11°C° 0.1 mm 7 m/S 753 mmHg 83%
    10:00 +12°C° 0 mm 7 m/S 753 mmHg 82%
    11:00 +14°C° 0.1 mm 7 m/S 753 mmHg 77%
    12:00 +14°C° 0.1 mm 7 m/S 753 mmHg 73%
    13:00 +15°C° 0.1 mm 8 m/S 752 mmHg 68%
    14:00 +15°C° 0 mm 7 m/S 752 mmHg 69%
    15:00 +14°C° 0 mm 7 m/S 752 mmHg 71%
    16:00 +14°C° 0 mm 6 m/S 752 mmHg 72%
    17:00 +13°C° 0 mm 6 m/S 752 mmHg 74%
    18:00 +10°C° 0 mm 5 m/S 752 mmHg 75%
    19:00 +8°C° 0 mm 5 m/S 752 mmHg 77%
    20:00 +9°C° 0 mm 5 m/S 752 mmHg 78%
    21:00 +9°C° 0 mm 6 m/S 752 mmHg 80%
    22:00 +9°C° 0 mm 6 m/S 752 mmHg 81%
    23:00 +10°C° 0 mm 7 m/S 752 mmHg 80%

    Morgen, 22 August, Donnerstag

    Zeit Temperatur Niederschläge Wind Luftdruck Luftfeuchtigkeit
    00:00 +10°C° 0 mm 7 m/S 751 mmHg 78%
    01:00 +10°C° 0 mm 8 m/S 751 mmHg 77%
    02:00 +10°C° 0 mm 7 m/S 751 mmHg 77%
    03:00 +10°C° 0 mm 7 m/S 751 mmHg 77%
    04:00 +9°C° 0 mm 7 m/S 751 mmHg 78%
    05:00 +8°C° 0 mm 6 m/S 752 mmHg 79%
    06:00 +7°C° 0 mm 6 m/S 753 mmHg 80%
    07:00 +5°C° 0 mm 6 m/S 753 mmHg 80%
    08:00 +7°C° 0 mm 6 m/S 754 mmHg 75%
    09:00 +8°C° 0 mm 7 m/S 754 mmHg 70%
    10:00 +9°C° 0 mm 8 m/S 755 mmHg 64%
    11:00 +9°C° 0 mm 7 m/S 755 mmHg 63%
    12:00 +10°C° 0 mm 7 m/S 755 mmHg 62%
    13:00 +10°C° 0 mm 7 m/S 754 mmHg 61%
    14:00 +10°C° 0 mm 7 m/S 755 mmHg 62%
    15:00 +10°C° 0 mm 6 m/S 755 mmHg 63%
    16:00 +10°C° 0 mm 6 m/S 755 mmHg 64%
    17:00 +8°C° 0 mm 5 m/S 755 mmHg 66%
    18:00 +7°C° 0 mm 5 m/S 756 mmHg 69%
    19:00 +5°C° 0 mm 4 m/S 756 mmHg 72%
    20:00 +4°C° 0 mm 4 m/S 757 mmHg 75%
    21:00 +3°C° 0 mm 3 m/S 757 mmHg 78%
    22:00 +2°C° 0 mm 3 m/S 758 mmHg 82%
    23:00 +2°C° 0 mm 3 m/S 758 mmHg 84%

    übermorgen, 23 August, Freitag

    Zeit Temperatur Niederschläge Wind Luftdruck Luftfeuchtigkeit
    00:00 +1°C° 0 mm 3 m/S 758 mmHg 87%
    01:00 +2°C° 0 mm 2 m/S 757 mmHg 90%
    02:00 +1°C° 0 mm 2 m/S 757 mmHg 90%
    03:00 +1°C° 0 mm 2 m/S 757 mmHg 91%
    04:00 -1°C° 0 mm 2 m/S 757 mmHg 91%
    05:00 +1°C° 0 mm 1 m/S 757 mmHg 90%
    06:00 +1°C° 0 mm 1 m/S 757 mmHg 89%
    07:00 0°C° 0 mm 1 m/S 757 mmHg 89%
    08:00 +3°C° 0 mm 1 m/S 757 mmHg 81%
    09:00 +4°C° 0 mm 2 m/S 757 mmHg 73%
    10:00 +7°C° 0 mm 2 m/S 757 mmHg 65%
    11:00 +8°C° 0 mm 2 m/S 756 mmHg 64%
    12:00 +10°C° 0 mm 3 m/S 756 mmHg 62%
    13:00 +11°C° 0 mm 3 m/S 755 mmHg 60%
    14:00 +11°C° 0 mm 3 m/S 755 mmHg 61%
    15:00 +12°C° 0 mm 3 m/S 754 mmHg 63%
    16:00 +13°C° 0 mm 2 m/S 754 mmHg 65%
    17:00 +10°C° 0 mm 2 m/S 754 mmHg 70%
    18:00 +8°C° 0 mm 2 m/S 754 mmHg 75%
    19:00 +6°C° 0 mm 2 m/S 754 mmHg 79%
    20:00 +5°C° 0 mm 3 m/S 754 mmHg 81%
    21:00 +4°C° 0 mm 3 m/S 754 mmHg 83%
    22:00 +3°C° 0 mm 3 m/S 754 mmHg 85%
    23:00 +3°C° 0 mm 3 m/S 754 mmHg 86%

    24 August, Samstag

    Zeit Temperatur Niederschläge Wind Luftdruck Luftfeuchtigkeit
    00:00 +3°C° 0 mm 3 m/S 754 mmHg 87%
    01:00 +2°C° 0 mm 3 m/S 753 mmHg 88%
    02:00 +2°C° 0 mm 3 m/S 753 mmHg 88%
    03:00 +2°C° 0 mm 3 m/S 753 mmHg 89%
    04:00 +1°C° 0 mm 3 m/S 752 mmHg 89%
    05:00 +1°C° 0 mm 3 m/S 752 mmHg 89%
    06:00 +1°C° 0 mm 3 m/S 752 mmHg 90%
    07:00 +1°C° 0 mm 3 m/S 752 mmHg 91%
    08:00 +3°C° 0 mm 4 m/S 752 mmHg 84%
    09:00 +5°C° 0 mm 4 m/S 752 mmHg 78%
    10:00 +7°C° 0 mm 4 m/S 752 mmHg 72%
    11:00 +10°C° 0 mm 4 m/S 751 mmHg 70%
    12:00 +12°C° 0 mm 4 m/S 751 mmHg 68%
    13:00 +14°C° 0 mm 4 m/S 750 mmHg 66%
    14:00 +14°C° 0.2 mm 4 m/S 750 mmHg 70%
    15:00 +16°C° 0.2 mm 3 m/S 749 mmHg 74%
    16:00 +16°C° 0.2 mm 2 m/S 748 mmHg 79%
    17:00 +15°C° 0.1 mm 2 m/S 749 mmHg 81%
    18:00 +13°C° 0.1 mm 2 m/S 749 mmHg 83%
    19:00 +12°C° 0.1 mm 2 m/S 750 mmHg 85%
    20:00 +10°C° 0.2 mm 3 m/S 750 mmHg 88%
    21:00 +10°C° 0.2 mm 3 m/S 751 mmHg 91%
    22:00 +8°C° 0.2 mm 4 m/S 751 mmHg 94%
    23:00 +7°C° 0.1 mm 4 m/S 751 mmHg 94%

    25 August, Sonntag

    Zeit Temperatur Niederschläge Wind Luftdruck Luftfeuchtigkeit
    00:00 +7°C° 0.1 mm 3 m/S 751 mmHg 94%
    01:00 +5°C° 0.1 mm 3 m/S 752 mmHg 94%
    02:00 +4°C° 0 mm 3 m/S 752 mmHg 94%
    03:00 +3°C° 0 mm 4 m/S 752 mmHg 94%
    04:00 +3°C° 0 mm 4 m/S 752 mmHg 94%
    05:00 +3°C° 0 mm 4 m/S 752 mmHg 94%
    06:00 +3°C° 0 mm 4 m/S 753 mmHg 93%
    07:00 +1°C° 0 mm 5 m/S 753 mmHg 93%
    08:00 +3°C° 0 mm 5 m/S 753 mmHg 87%
    09:00 +6°C° 0 mm 5 m/S 754 mmHg 81%
    10:00 +8°C° 0 mm 5 m/S 754 mmHg 75%
    11:00 +9°C° 0 mm 5 m/S 754 mmHg 71%
    12:00 +11°C° 0 mm 4 m/S 754 mmHg 67%
    13:00 +12°C° 0 mm 4 m/S 754 mmHg 62%
    14:00 +12°C° 0 mm 4 m/S 753 mmHg 64%
    15:00 +12°C° 0 mm 5 m/S 753 mmHg 65%
    16:00 +10°C° 0 mm 5 m/S 753 mmHg 67%
    17:00 +9°C° 0 mm 5 m/S 754 mmHg 68%
    18:00 +7°C° 0 mm 6 m/S 754 mmHg 69%
    19:00 +4°C° 0 mm 6 m/S 755 mmHg 70%
    20:00 +5°C° 0 mm 5 m/S 755 mmHg 73%
    21:00 +3°C° 0 mm 5 m/S 755 mmHg 76%
    22:00 +3°C° 0 mm 4 m/S 756 mmHg 79%
    23:00 +1°C° 0 mm 4 m/S 756 mmHg 82%

    26 August, Montag

    Zeit Temperatur Niederschläge Wind Luftdruck Luftfeuchtigkeit
    00:00 +1°C° 0 mm 4 m/S 756 mmHg 84%
    01:00 +1°C° 0 mm 3 m/S 756 mmHg 87%
    02:00 +1°C° 0 mm 3 m/S 756 mmHg 87%
    03:00 0°C° 0 mm 3 m/S 756 mmHg 87%
    04:00 0°C° 0 mm 3 m/S 756 mmHg 88%
    05:00 0°C° 0 mm 3 m/S 756 mmHg 88%
    06:00 0°C° 0 mm 3 m/S 756 mmHg 88%
    07:00 0°C° 0 mm 3 m/S 757 mmHg 88%
    08:00 +3°C° 0 mm 3 m/S 757 mmHg 81%
    09:00 +5°C° 0 mm 3 m/S 757 mmHg 74%
    10:00 +9°C° 0 mm 3 m/S 757 mmHg 67%
    11:00 +10°C° 0 mm 3 m/S 756 mmHg 64%
    12:00 +13°C° 0 mm 2 m/S 756 mmHg 61%
    13:00 +14°C° 0 mm 2 m/S 756 mmHg 57%
    14:00 +13°C° 0 mm 3 m/S 755 mmHg 60%
    15:00 +13°C° 0 mm 3 m/S 755 mmHg 63%
    16:00 +13°C° 0 mm 3 m/S 755 mmHg 66%
    17:00 +11°C° 0 mm 4 m/S 755 mmHg 71%
    18:00 +8°C° 0 mm 4 m/S 756 mmHg 76%
    19:00 +6°C° 0 mm 4 m/S 757 mmHg 82%
    20:00 +5°C° 0 mm 4 m/S 757 mmHg 84%
    21:00 +5°C° 0 mm 3 m/S 757 mmHg 87%
    22:00 +4°C° 0 mm 3 m/S 757 mmHg 90%
    23:00 +3°C° 0 mm 3 m/S 757 mmHg 90%
    Mehr zeigen